Starlink 1777

operational
NORAD ID: 47122 Int'l Des: 2020-088 Owner: SPXS Country: US Constellation: starlink
LEOCIRCULARSTARLINK_TYPE

Über Starlink 1777

Beschreibung wird geladen...

Live-Position

3D-Globus wird geladen...

Nächste Überflüge

Höhenverlauf

Altitude vs Time

uPlot chart will show altitude changes over time

Zweizeiliger Elementsatz

1 47122U 20088A 25351.61032774 .00001164 00000-0 97017-4 0 9990
2 47122 53.0570 310.0895 0001530 97.5887 262.5276 15.06404378279463
Epoch: 17. Dez. 2025 • Age: 17 hours

Aktueller Status

Höhe 549.8 km
Geschwindigkeit 7.59 km/s
Subsatellitenpunkt -9.57°S, 64.25°W
Startdatum 25. Nov. 2020
Alter 5 years
Typ internet

Technische Details

Klassifizierung Payload
Masse 260.00 kg
Trockenmasse 248.00 kg
Gesamtmasse 260.00 kg
Länge 0.20 m
Durchmesser 2.80 m
Spannweite 9.00 m
Form Box + pan
Hersteller SPXS
Bus-Typ Starlink
Phasenstatus In Orbit
Besitzer/Staat SPXS/US

Große Konstellationen

Loading constellations...